Showing default

TPA-1, 64533

Orbit data source: Space-Track

TPA-1, 64533 is a New Zealander payload satellite in SSO that was launched on Mon, 23 Jun 2025 UTC via an FALCON 9 launch vehicle from the Air Force Western Test Range (AFWTR). Payload-class satellites include a variety of spacecraft equipped with specific instruments for various scientific and technological missions. These include communications satellites like Starlink; space stations such as the ISS; scientific satellites like the Hubble; Earth observation satellites from companies like Planet Labs, Umbra, and HawkEye 360; GPS; miniature CubeSats for education and research; and military/defense satellites.

Loading next visibility...
Identifier
64533, 2025-135F
Orbit
SSO
Country
Flag of NZNZ
Related business
Manufacturer
NANAV/TPA
Mission
Operational Amateur Technology
Bus & Motor
CUBESAT 3U, Unknown motor
Mass
5 kg wet, 5 kg dry
Launch date (UTC)
2025-06-23 (7 months ago)
Launch vehicle
FALCON 9
Launch site
Air Force Western Test Range (AFWTR)
Object type
Payload
Rocket body
Debris
Shape & HBR
Box, 1.5 m
Radar Cross Section
0.035 m², Small (<0.1 m²)

Expand to show TLE details & history
Last TLE update: 1 day ago

TLE from 1 day ago
0 TPA-1
1 64533U 25135F   26035.30459532  .00005142  00000-0  24019-3 0  9995
2 64533  97.4556 151.5263 0003963 301.8916  58.1933 15.20242976 34656
Epoch: 2026-02-04T07:18Z
TLE epoch observation values (Epoch: 2026-02-04T07:18:37.035Z)
Latitude
-0.00006°
Longitude
-92.6011°
Altitude
506.759 km
Speed
7.612 km/s
True Right ascension
10h 06m 06s
True Declination
0° 00' 00"
Sunlit
Object was in full shadow at epoch
Visualization orbit readout
Latitude
Unknown
Longitude
Unknown
Altitude
Unknown
Speed
Unknown
Apparent Right ascension
Unknown
Apparent Declination
Unknown
Sunlit
N/A
Visualization observer readout
Local Sidereal Time
09:20:58
Azimuth
Unknown
Elevation
Unknown
Doppler factor
Unknown
Orbital elements
Apogee altitude
504.801 km
Perigee altitude
499.348 km
Semi-major axis
6,880.212 km
Eccentricity
0.0004
Inclination
97.4556°
RAAN
151.5263°
Arg. of periapsis
301.8916°
True anomaly
58.2319°
Mean anomaly
58.1933°
Eccentric anomaly
58.2126°
Mean motion
3.80312 °/min
Orbital period
94.66 mins
BSTAR
0.00024019
Loading maneuver chart data...
Computing Atmospheric mass density...
Loading historical data...
Loading historical data...
Loading historical data...
Loading historical data...
Loading historical data...
Loading historical data...
Loading historical data...

Documentation

Showing up to 5 results
|